Content
SEND FEEDBACK

Daily
Averages
Monthly
Summary
United States of America

EARTH CITY, MISSOURI


Home > North America > United States > Missouri
Elevation: 476 feet     Latitude: 38 46N     Longitude: 090 30W

WEATHER
 
SELECT A DAY
Number of Records: 203,643;   Date Range: 1/1/95 - 9/16/14
 
SHARE

PRINT THIS DATA

[ ← Previous Day ]
WEATHER ALMANAC - MARCH 31, 2013
[ Next Day → ]
[ °C ]   °F
Weather ElementAverageHighLow
Temperature54.7 °F68 °F (2:51 pm)48 °F (2:51 am)
Dewpoint42.8 °F48.2 °F (9:09 am)30.9 °F (11:51 pm)
Humidity68.7 %93 % (1:04 am)30 % (4:51 pm)
Barometer29.90 in29.95 in (10:51 pm)29.85 in (4:51 pm)
Wind Speed7.5 mph15 mph (5:51 pm)
Wind Gust25.3 mph (3:51 pm)
Weather ElementAverage
Visibility6.4 mi
Wind DirectionWNW (282.3 °)

Weather ElementTotal
Precipitation---
Heating Degree Days7 (Base 65)
Growing Degree Days8 (Base 50)
Averaged from 31 records on March 31, 2013
WEATHER CONDITIONS BREAKOUT
WIND DIRECTION BREAKOUT
WEATHER BY HOUR - MARCH 31, 2013
[ °C ]   °F
Local TimeTemperatureDewpointHumidityBarometerVisibilityWind DirectionWind SpeedGust SpeedPrecipitationEventsConditions
1:04 AM48.2 °F46.4 °F93 %29.91 in3.0 miSSW (210°)4.6 mphOvercast
1:51 AM48.9 °F46.0 °F90 %29.91 in3.0 miWSW (250°)5.8 mphOvercast
2:51 AM48.0 °F45.0 °F89 %29.89 in3.0 miWest (260°)4.6 mphOvercast
3:51 AM48.9 °F46.0 °F90 %29.88 in4.0 miWest (260°)4.6 mphOvercast
4:33 AM48.2 °F46.4 °F93 %29.88 in4.0 miWest (280°)8.1 mphOvercast
4:51 AM48.9 °F46.0 °F90 %29.90 in3.0 miWest (280°)5.8 mphOvercast
5:51 AM48.0 °F45.0 °F89 %29.89 in3.0 miNW (310°)4.6 mphOvercast
6:02 AM48.2 °F44.6 °F87 %29.89 in3.0 miWNW (300°)4.6 mphOvercast
6:48 AM48.2 °F44.6 °F87 %29.91 in4.0 miWSW (250°)4.6 mphOvercast
6:51 AM48.0 °F45.0 °F89 %29.91 in4.0 miWSW (250°)4.6 mphOvercast
7:18 AM48.2 °F44.6 °F87 %29.91 in3.0 miWest (280°)5.8 mphOvercast
7:39 AM48.2 °F44.6 °F87 %29.91 in3.0 miWNW (300°)4.6 mphOvercast
7:51 AM48.9 °F46.0 °F90 %29.92 in3.0 miWest (270°)4.6 mphOvercast
9:09 AM51.8 °F48.2 °F88 %29.91 in3.0 miWNW (290°)6.9 mphOvercast
9:51 AM52.0 °F48.0 °F86 %29.92 in3.0 miWNW (300°)9.2 mphOvercast
10:19 AM53.6 °F48.2 °F82 %29.92 in5.0 miNW (320°)6.9 mphHaze
10:34 AM55.4 °F46.4 °F72 %29.91 in7.0 miCalmScattered Clouds
10:51 AM55.9 °F46.9 °F72 %29.91 in8.0 miWest (280°)5.8 mphScattered Clouds
11:51 AM60.1 °F46.0 °F60 %29.88 in10.0 miNW (320°)6.9 mphScattered Clouds
12:51 PM64.0 °F45.0 °F50 %29.89 in10.0 miNW (320°)9.2 mphScattered Clouds
1:51 PM66.0 °F39.0 °F37 %29.88 in10.0 miWNW (300°)11.5 mph23.0 mphScattered Clouds
2:51 PM68.0 °F37.0 °F32 %29.86 in10.0 miWNW (290°)12.7 mph19.6 mphPartly Cloudy
3:51 PM68.0 °F37.0 °F32 %29.86 in10.0 miWNW (290°)13.8 mph25.3 mphScattered Clouds
4:51 PM68.0 °F35.1 °F30 %29.85 in10.0 miWNW (300°)13.8 mph21.9 mphScattered Clouds
5:51 PM64.9 °F35.1 °F33 %29.86 in10.0 miWNW (300°)15.0 mph23.0 mphScattered Clouds
6:51 PM64.0 °F37.9 °F38 %29.86 in10.0 miNW (310°)13.8 mph19.6 mphScattered Clouds
7:51 PM61.0 °F39.0 °F44 %29.88 in10.0 miNW (310°)11.5 mphMostly Cloudy
8:51 PM57.9 °F39.9 °F51 %29.91 in10.0 miNNW (330°)9.2 mphScattered Clouds
9:51 PM55.0 °F39.0 °F55 %29.93 in10.0 miNW (320°)6.9 mphPartly Cloudy
10:51 PM52.0 °F37.9 °F59 %29.95 in10.0 miNW (310°)4.6 mphPartly Cloudy
11:51 PM50.0 °F30.9 °F48 %29.95 in10.0 miNorth (360°)8.1 mphClear
Hourly data recorded from KSTL, located miles away from Earth City, Missouri







STORIES FROM OUR PARTNERS